FALCON 9 R/B (55509 NORAD) Tracking and Keplerian Element Data

This shows tracking and keplerian element data for the satellite.

Feedback or suggestion? Click here.




ElementValue
Catalog55509
NameFALCON 9 R/B
Epoch Orbit12
Epoch Day48.05522156
Epoch Year2023
RAAN349.6435
Inclination24.9411
Eccentricity0.8170614
Argument of Perigee181.2257
Mean Anonmoly173.4294
Mean Motion1.25162264
Decay Rate1.006E-05
L11 55509U 23017B 23048.05522156 .00001006 00000+0 23504-2 0 9992
L22 55509 24.9411 349.6435 8170614 181.2257 173.4294 1.25162264 126



Live tracking and technical data element details for FALCON 9 R/B (NORAD 55509). FALCON 9 R/B can be tracked NOW for your location showing map with azimuth and elevation plus other details from your city location.







IsCatalogInMostPopularTable: catalog: 55509, numindb: -1

Insert: records affected: 1


GetName: 55509 FALCON 9 R/B

Hit Count: inserted at: Mon, 05 Jun 2023 19:45:24 GMT